User: anonymous   Login
Location: Sherrills_Ford_Terrell
(35.6000°N, 80.9830°W)
Time: 01:18:17
(UTC-04:00)
Language:

CZ-4B R/B - Orbit

View from above orbital plane
View from above orbital plane
View from above satellite
View from above satellite

Ground track
Ground track

The orbit data is extracted from the following two-line orbital elements,

1 29093U 06015B   17086.89283505 +.00005441 +00000-0 +13300-3 0  9991
2 29093 097.4880 195.9265 0063620 249.4538 109.9873 15.39156860604922
Epoch (UTC): 27 March 2017 21:25:40
Eccentricity: 0.0063620
inclination: 97.4880°
perigee height: 405 km
apogee height: 492 km
right ascension of ascending node: 195.9265°
argument of perigee: 249.4538°
revolutions per day: 15.39156860
mean anomaly at epoch: 109.9873°
orbit number at epoch: 60492

The dashed part of the orbit path shows where the satellite is in the earth's shadow,  

DLR